Hourly Data Report for March 20, 2021

NANAIMO A
BRITISH COLUMBIA
Current Station Operator: NAVCAN

49°03'16.000" N
123°52'12.000" W
28.00 m
1025365
YCD

Download Data

Hourly Data (March 2021)
Hourly Data Report for March 20, 2021
TIME
LST
Temp Definition
°C
Dew Point Definition
°C
Rel Hum Definition
%
Precip. Amount Definition
mm

Wind Dir Definition
10's deg

Wind Spd Definition
km/h
Visibility Definition
km
Stn Press Definition
kPa
Hmdx Definition


Wind Chill Definition


Weather Definition


00:00 5.2 4.2 94 LegendMM 25 9 LegendMM 100.89     LegendNANA
01:00 4.9 4.3 96 LegendMM 27 1 LegendMM 100.95     LegendNANA
02:00 4.8 4.2 96 LegendMM 34 3 LegendMM 101.02     LegendNANA
03:00 4.7 4.3 97 LegendMM 28 10 LegendMM 101.06     LegendNANA
04:00 4.7 4.1 96 LegendMM 26 6 LegendMM 101.13     LegendNANA
05:00 4.8 3.8 93 LegendMM 27 6 LegendMM 101.19     LegendNANA
06:00 4.7 3.9 95 LegendMM 29 7 LegendMM 101.23     LegendNANA
07:00 4.6 3.6 93 LegendMM 26 5 LegendMM 101.31     LegendNANA
08:00 5.4 4.3 92 LegendMM 24 3 LegendMM 101.36     LegendNANA
09:00 7.5 4.6 82 LegendMM 30 2 LegendMM 101.44     LegendNANA
10:00 9.0 3.3 67 LegendMM 30 9 LegendMM 101.52     LegendNANA
11:00 9.7 2.7 62 LegendMM 36 12 LegendMM 101.58     LegendNANA
12:00 9.7 2.7 61 LegendMM 33 13 LegendMM 101.63     LegendNANA
13:00 8.3 3.8 73 LegendMM 35 13 LegendMM 101.67     LegendNANA
14:00 8.8 4.2 73 LegendMM 1 17 LegendMM 101.70     LegendNANA
15:00 7.3 3.3 75 LegendMM 35 19 LegendMM 101.75     LegendNANA
16:00 7.0 3.4 78 LegendMM 33 9 LegendMM 101.81     LegendNANA
17:00 7.1 4.9 86 LegendMM 22 4 LegendMM 101.86     LegendNANA
18:00 6.7 5.0 89 LegendMM 26 5 LegendMM 101.92     LegendNANA
19:00 5.7 2.7 81 LegendMM 26 12 LegendMM 102.00     LegendNANA
20:00 5.1 2.2 81 LegendMM 26 8 LegendMM 102.05     LegendNANA
21:00 4.9 2.1 82 LegendMM 24 9 LegendMM 102.12     LegendNANA
22:00 5.1 1.5 77 LegendMM 24 8 LegendMM 102.14     LegendNANA
23:00 5.4 1.4 76 LegendMM 27 8 LegendMM 102.18     LegendNANA

Notes on Data Quality.

Legend

  • E = Estimated
  • M = Missing
  • NA = Not Available*
  • [empty] = Indicates an unobserved value
Date modified: